Location: Newark
(34.9500°N, 139.9667°E)
Time: 04:33:10
(UTC+00:00)

Vanguard 2 Rocket - Pass Details

Date: 12 December 2019
Orbit: 554 x 3326 km, 32.9° (Epoch: 24 January)

Event Time Altitude Azimuth Distance (km) Brightness Sun altitude
Rises 12:11:00 0° 278° (W) 5,219 11.3 -56.8°
Reaches altitude 10° 12:15:13 10° 275° (W) 3,755 10.4 -57.7°
Enters shadow 12:16:55 15° 273° (W) 3,152 9.9 -58.0°
Maximum altitude 12:23:48 57° 200° (SSW) 1,171 - -59.4°
Drops below altitude 10° 12:28:53 10° 122° (ESE) 2,259 - -60.4°
Sets 12:30:52 0° 117° (ESE) 3,011 - -60.8°
